2019-093F (44884 NORAD) Tracking and Keplerian Element Data

This shows tracking and keplerian element data for the satellite.

Feedback or suggestion? Click here.




ElementValue
Catalog44884
Name2019-093F
Epoch Orbit430
Epoch Day18.22326528
Epoch Year2020
RAAN95.1936
Inclination97.9725
Eccentricity0.0014031
Argument of Perigee170.7271
Mean Anonmoly189.4219
Mean Motion14.81753064
Decay Rate1.74E-06
L11 44884U 19093F 20018.22326528 .00000174 00000-0 28852-4 0 9992
L22 44884 97.9725 95.1936 0014031 170.7271 189.4219 14.81753064 4306

Live tracking and technical data element details for 2019-093F (NORAD 44884). 2019-093F can be tracked NOW for your location showing map with azimuth and elevation plus other details from your city location.

Track the satellite on the map from your city or location and see movement details for azimuth, elevation, latitude, longitude, range, height, and movement on the map or in text.







IsCatalogInMostPopularTable: catalog: 44884, numindb: 10
Update: records affected: 1



GetName: 44884 2019-093F

Hit Count: updated at: Mon, 20 Jan 2020 04:29:04 GMT